Indianapolis Mount Comfort, IN

5:01 AM EST on November 22, 2019 (GMT -0500)
Mount Comfort

Weather History for KMQJ - October, 2019

Change the Weather History Date:

Sunday, October 13, 2019

  Actual Average (KEYE) Record (KEYE)
Temperature  
Mean Temperature 50 °F -  
Max Temperature 66 °F 62 °F 78 °F (2008)
Min Temperature 35 °F 43 °F 32 °F (2006)
Degree Days  
Heating Degree Days 14    
Moisture  
Dew Point 39 °F    
Average Humidity 70    
Maximum Humidity 100    
Minimum Humidity 40    
Precipitation  
Precipitation 0.00 in - - ()
Sea Level Pressure  
Sea Level Pressure 29.95 in    
Wind  
Wind Speed 8 mph (SSW)    
Max Wind Speed 17 mph    
Max Gust Speed 24 mph    
Visibility 10 miles    
Events      
Averages and records for this station are not official NWS values.
T = Trace of Precipitation, MM = Missing Value Source: NWS Daily Summary

Daily Weather History Graph

Daily Weather History Graph

Search for Another Location

Airport or City:

Astronomy

Oct. 13, 2019 Rise Set
Actual Time 7:51 AM EDT 7:07 PM EDT
Civil Twilight 7:24 AM EDT 7:34 PM EDT
Nautical Twilight 6:53 AM EDT 8:05 PM EDT
Astronomical Twilight 6:21 AM EDT 8:37 PM EDT
Moon 7:29 PM EDT (10/13) 7:25 AM EDT (10/13)
Length of Visible Light 12h 10m
Length of Day
11h 15m
Full, 100% of the Moon is Illuminated
Oct 13
Full
Oct 13
Full
Oct 21
Last Quarter
Oct 27
New
Nov 4
First Quarter

Hourly Weather History & Observations

Time (EDT) Temp. Windchill Dew Point Humidity Pressure Visibility Wind Dir Wind Speed Gust Speed Precip Events Conditions
12:15 AM 41.0 °F 36.4 °F 35.6 °F 81% 30.03 in 10.0 mi SSW 6.9 mph - N/A   Clear
12:16 AM 41.0 °F 37.1 °F 35.6 °F 81% 30.03 in 10.0 mi SSW 5.8 mph - N/A   Clear
12:35 AM 41.0 °F 37.1 °F 35.6 °F 81% 30.03 in 10.0 mi South 5.8 mph - N/A   Clear
12:55 AM 39.2 °F 35.9 °F 35.6 °F 87% 30.02 in 10.0 mi South 4.6 mph - N/A   Clear
1:15 AM 39.2 °F 35.0 °F 35.6 °F 87% 30.02 in 10.0 mi South 5.8 mph - N/A   Clear
1:35 AM 39.2 °F 35.0 °F 35.6 °F 87% 30.01 in 10.0 mi South 5.8 mph - N/A   Clear
1:55 AM 39.2 °F 34.2 °F 35.6 °F 87% 30.01 in 10.0 mi South 6.9 mph - N/A   Clear
1:56 AM 39.2 °F 35.0 °F 35.6 °F 87% 30.01 in 10.0 mi South 5.8 mph - N/A   Clear
2:15 AM 39.2 °F 35.0 °F 35.6 °F 87% 30.01 in 10.0 mi South 5.8 mph - N/A   Clear
2:35 AM 37.4 °F 32.8 °F 35.6 °F 93% 30.01 in 10.0 mi South 5.8 mph - N/A   Clear
2:55 AM 37.4 °F 32.1 °F 35.6 °F 93% 30.01 in 10.0 mi South 6.9 mph - N/A   Clear
2:56 AM 37.4 °F 32.1 °F 35.6 °F 93% 30.01 in 10.0 mi South 6.9 mph - N/A   Clear
3:15 AM 37.4 °F 33.8 °F 35.6 °F 93% 30.01 in 10.0 mi South 4.6 mph - N/A   Clear
3:16 AM 37.4 °F 33.8 °F 35.6 °F 93% 30.01 in 10.0 mi South 4.6 mph - N/A   Clear
3:35 AM 37.4 °F 32.8 °F 35.6 °F 93% 30.01 in 10.0 mi South 5.8 mph - N/A   Clear
3:36 AM 37.4 °F 33.8 °F 35.6 °F 93% 30.01 in 10.0 mi South 4.6 mph - N/A   Clear
3:55 AM 37.4 °F 32.8 °F 35.6 °F 93% 30.01 in 10.0 mi South 5.8 mph - N/A   Clear
3:56 AM 37.4 °F 33.8 °F 35.6 °F 93% 30.01 in 10.0 mi South 4.6 mph - N/A   Clear
4:15 AM 35.6 °F 29.9 °F 35.6 °F 100% 30.00 in 10.0 mi South 6.9 mph - N/A   Clear
4:35 AM 35.6 °F 30.7 °F 35.6 °F 100% 30.00 in 10.0 mi South 5.8 mph - N/A   Clear
4:55 AM 35.6 °F 30.7 °F 35.6 °F 100% 29.99 in 10.0 mi South 5.8 mph - N/A   Clear
4:56 AM 35.6 °F 30.7 °F 35.6 °F 100% 29.99 in 10.0 mi South 5.8 mph - N/A   Clear
5:15 AM 35.6 °F 30.7 °F 35.6 °F 100% 29.99 in 10.0 mi South 5.8 mph - N/A   Clear
5:16 AM 35.6 °F 30.7 °F 35.6 °F 100% 29.99 in 10.0 mi South 5.8 mph - N/A   Clear
5:35 AM 35.6 °F 30.7 °F 35.6 °F 100% 29.99 in 10.0 mi South 5.8 mph - N/A   Clear
5:36 AM 35.6 °F 31.7 °F 35.6 °F 100% 29.99 in 10.0 mi South 4.6 mph - N/A   Clear
5:55 AM 35.6 °F 29.9 °F 35.6 °F 100% 29.99 in 10.0 mi South 6.9 mph - N/A   Clear
6:15 AM 35.6 °F 29.9 °F 35.6 °F 100% 29.99 in 10.0 mi South 6.9 mph - N/A   Clear
6:35 AM 35.6 °F 29.9 °F 35.6 °F 100% 29.99 in 10.0 mi South 6.9 mph - N/A   Clear
6:36 AM 35.6 °F 29.9 °F 35.6 °F 100% 29.99 in 10.0 mi South 6.9 mph - N/A   Clear
6:55 AM 35.6 °F 28.6 °F 35.6 °F 100% 29.98 in 10.0 mi South 9.2 mph - N/A   Clear
6:56 AM 35.6 °F 29.2 °F 35.6 °F 100% 29.98 in 10.0 mi South 8.1 mph - N/A   Clear
7:15 AM 37.4 °F 31.4 °F 35.6 °F 93% 29.99 in 10.0 mi South 8.1 mph - N/A   Clear
7:16 AM 37.4 °F 31.4 °F 35.6 °F 93% 29.99 in 10.0 mi South 8.1 mph - N/A   Clear
7:35 AM 37.4 °F 31.4 °F 35.6 °F 93% 29.99 in 10.0 mi South 8.1 mph - N/A   Clear
7:36 AM 37.4 °F 31.4 °F 35.6 °F 93% 29.99 in 10.0 mi South 8.1 mph - N/A   Clear
7:55 AM 35.6 °F 29.9 °F 35.6 °F 100% 29.99 in 10.0 mi South 6.9 mph - N/A   Clear
8:15 AM 37.4 °F 31.4 °F 35.6 °F 93% 29.99 in 10.0 mi South 8.1 mph - N/A   Clear
8:16 AM 37.4 °F 31.4 °F 35.6 °F 93% 29.99 in 10.0 mi South 8.1 mph - N/A   Clear
8:35 AM 37.4 °F 31.4 °F 37.4 °F 100% 29.98 in 10.0 mi South 8.1 mph - N/A   Clear
8:36 AM 37.4 °F 32.1 °F 37.4 °F 100% 29.98 in 10.0 mi South 6.9 mph - N/A   Clear
8:55 AM 39.2 °F 33.0 °F 37.4 °F 93% 29.97 in 10.0 mi South 9.2 mph - N/A   Clear
9:15 AM 42.8 °F 37.5 °F 37.4 °F 81% 29.98 in 10.0 mi SSW 9.2 mph - N/A   Clear
9:16 AM 42.8 °F 38.0 °F 37.4 °F 81% 29.98 in 10.0 mi SSW 8.1 mph - N/A   Clear
9:35 AM 44.6 °F 40.7 °F 39.2 °F 81% 29.99 in 10.0 mi SSW 6.9 mph - N/A   Clear
9:55 AM 46.4 °F 43.5 °F 39.2 °F 76% 29.98 in 10.0 mi SSW 5.8 mph - N/A   Clear
9:56 AM 46.4 °F 43.5 °F 39.2 °F 76% 29.98 in 10.0 mi SSW 5.8 mph - N/A   Clear
10:15 AM 48.2 °F - 39.2 °F 71% 29.98 in 10.0 mi SSW 8.1 mph - N/A   Clear
10:16 AM 48.2 °F - 39.2 °F 71% 29.98 in 10.0 mi SSW 6.9 mph - N/A   Clear
10:35 AM 51.8 °F - 39.2 °F 62% 29.98 in 10.0 mi SW 8.1 mph 16.1 mph N/A   Clear
10:55 AM 53.6 °F - 41.0 °F 62% 29.97 in 10.0 mi SSW 6.9 mph - N/A   Clear
10:56 AM 53.6 °F - 41.0 °F 62% 29.97 in 10.0 mi SSW 8.1 mph - N/A   Clear
11:15 AM 55.4 °F - 41.0 °F 58% 29.97 in 10.0 mi SW 10.4 mph - N/A   Clear
11:35 AM 55.4 °F - 41.0 °F 58% 29.96 in 10.0 mi SW 9.2 mph - N/A   Clear
11:36 AM 55.4 °F - 41.0 °F 58% 29.96 in 10.0 mi SW 8.1 mph - N/A   Clear
11:55 AM 57.2 °F - 41.0 °F 55% 29.96 in 10.0 mi SW 10.4 mph - N/A   Clear
12:15 PM 57.2 °F - 41.0 °F 55% 29.96 in 10.0 mi SSW 13.8 mph 17.3 mph N/A   Clear
12:35 PM 59.0 °F - 41.0 °F 51% 29.95 in 10.0 mi SW 12.7 mph 16.1 mph N/A   Clear
12:55 PM 60.8 °F - 42.8 °F 52% 29.94 in 10.0 mi WSW 10.4 mph - N/A   Clear
1:15 PM 60.8 °F - 41.0 °F 48% 29.94 in 10.0 mi SW 13.8 mph 17.3 mph N/A   Clear
1:16 PM 60.8 °F - 41.0 °F 48% 29.94 in 10.0 mi SW 11.5 mph 17.3 mph N/A   Clear
1:35 PM 62.6 °F - 42.8 °F 48% 29.94 in 10.0 mi WSW 8.1 mph - N/A   Clear
1:36 PM 62.6 °F - 42.8 °F 48% 29.94 in 10.0 mi WSW 9.2 mph - N/A   Clear
1:55 PM 62.6 °F - 42.8 °F 48% 29.93 in 10.0 mi SW 10.4 mph 17.3 mph N/A   Clear
2:15 PM 64.4 °F - 42.8 °F 45% 29.92 in 10.0 mi SW 13.8 mph - N/A   Clear
2:35 PM 64.4 °F - 41.0 °F 42% 29.91 in 10.0 mi SSW 15.0 mph 20.7 mph N/A   Clear
2:55 PM 64.4 °F - 42.8 °F 45% 29.90 in 10.0 mi WSW 15.0 mph 20.7 mph N/A   Clear
3:15 PM 66.2 °F - 42.8 °F 43% 29.89 in 10.0 mi SW 15.0 mph 18.4 mph N/A   Clear
3:16 PM 66.2 °F - 41.0 °F 40% 29.89 in 10.0 mi SW 15.0 mph 18.4 mph N/A   Clear
3:35 PM 66.2 °F - 41.0 °F 40% 29.89 in 10.0 mi WSW 11.5 mph 20.7 mph N/A   Clear
3:36 PM 66.2 °F - 41.0 °F 40% 29.89 in 10.0 mi WSW 12.7 mph 20.7 mph N/A   Clear
3:55 PM 66.2 °F - 42.8 °F 43% 29.88 in 10.0 mi SW 13.8 mph 19.6 mph N/A   Clear
4:15 PM 66.2 °F - 41.0 °F 40% 29.88 in 10.0 mi SW 15.0 mph 19.6 mph N/A   Clear
4:35 PM 66.2 °F - 41.0 °F 40% 29.88 in 10.0 mi WSW 12.7 mph 21.9 mph N/A   Clear
4:55 PM 66.2 °F - 41.0 °F 40% 29.88 in 10.0 mi SW 16.1 mph 23.0 mph N/A   Clear
4:56 PM 66.2 °F - 41.0 °F 40% 29.88 in 10.0 mi SW 15.0 mph 23.0 mph N/A   Clear
5:15 PM 66.2 °F - 41.0 °F 40% 29.88 in 10.0 mi WSW 16.1 mph 23.0 mph N/A   Clear
5:35 PM 66.2 °F - 41.0 °F 40% 29.88 in 10.0 mi SW 17.3 mph 24.2 mph N/A   Clear
5:55 PM 66.2 °F - 41.0 °F 40% 29.89 in 10.0 mi WSW 16.1 mph 23.0 mph N/A   Clear
5:56 PM 66.2 °F - 41.0 °F 40% 29.89 in 10.0 mi WSW 16.1 mph 23.0 mph N/A   Clear
6:15 PM 64.4 °F - 41.0 °F 42% 29.89 in 10.0 mi SW 16.1 mph 20.7 mph N/A   Clear
6:35 PM 64.4 °F - 41.0 °F 42% 29.88 in 10.0 mi SW 12.7 mph - N/A   Clear
6:36 PM 64.4 °F - 41.0 °F 42% 29.88 in 10.0 mi SW 11.5 mph - N/A   Clear
6:55 PM 62.6 °F - 41.0 °F 45% 29.88 in 10.0 mi SW 10.4 mph 17.3 mph N/A   Clear
6:56 PM 62.6 °F - 41.0 °F 45% 29.88 in 10.0 mi SW 11.5 mph 17.3 mph N/A   Clear
7:15 PM 60.8 °F - 41.0 °F 48% 29.89 in 10.0 mi SSW 8.1 mph - N/A   Clear
7:35 PM 60.8 °F - 41.0 °F 48% 29.89 in 10.0 mi SW 8.1 mph - N/A   Clear
7:36 PM 59.0 °F - 41.0 °F 51% 29.89 in 10.0 mi SW 6.9 mph - N/A   Clear
7:55 PM 59.0 °F - 41.0 °F 51% 29.89 in 10.0 mi SW 9.2 mph - N/A   Clear
8:15 PM 57.2 °F - 41.0 °F 55% 29.90 in 10.0 mi SSW 6.9 mph - N/A   Clear
8:16 PM 57.2 °F - 41.0 °F 55% 29.90 in 10.0 mi SSW 5.8 mph - N/A   Clear
8:35 PM 57.2 °F - 41.0 °F 55% 29.91 in 10.0 mi SSW 5.8 mph - N/A   Clear
8:55 PM 55.4 °F - 41.0 °F 58% 29.92 in 10.0 mi SSW 6.9 mph - N/A   Clear
8:56 PM 55.4 °F - 41.0 °F 58% 29.92 in 10.0 mi SSW 6.9 mph - N/A   Clear
9:15 PM 53.6 °F - 41.0 °F 62% 29.92 in 10.0 mi SSW 6.9 mph - N/A   Clear
9:35 PM 53.6 °F - 41.0 °F 62% 29.92 in 10.0 mi SSW 6.9 mph - N/A   Clear
9:55 PM 53.6 °F - 41.0 °F 62% 29.92 in 10.0 mi SSW 6.9 mph - N/A   Clear
9:56 PM 53.6 °F - 41.0 °F 62% 29.92 in 10.0 mi SSW 6.9 mph - N/A   Clear
10:15 PM 53.6 °F - 41.0 °F 62% 29.93 in 10.0 mi SSW 6.9 mph - N/A   Clear
10:35 PM 51.8 °F - 41.0 °F 67% 29.93 in 10.0 mi SSW 6.9 mph - N/A   Clear
10:55 PM 51.8 °F - 41.0 °F 67% 29.94 in 10.0 mi SW 5.8 mph - N/A   Clear
10:56 PM 51.8 °F - 41.0 °F 67% 29.94 in 10.0 mi SW 5.8 mph - N/A   Clear
11:15 PM 50.0 °F - 41.0 °F 71% 29.94 in 10.0 mi SSW 4.6 mph - N/A   Clear
11:35 PM 50.0 °F - 41.0 °F 71% 29.94 in 10.0 mi SW 6.9 mph - N/A   Clear